Location: Narrabri
(30.3170°S, 149.7830°E)
Time: 17:05:14
(UTC+11:00)

Envisat - Visible Passes

Search period start: 22 January 2019 00:00
Search period end: 01 February 2019 00:00
Orbit: 764 x 766 km, 98.2° (Epoch: 20 January)

Date Brightness Start Highest point End Pass type
(mag) Time Alt. Az. Time Alt. Az. Time Alt. Az.
22 Jan 3.5 20:46:25 10° S 20:51:31 64° WSW 20:56:32 10° NNW visible
23 Jan 6.0 21:50:36 10° SW 21:53:18 14° WSW 21:56:00 10° W visible
24 Jan 4.8 21:12:19 10° S 21:16:55 34° WSW 21:21:28 10° NW visible
25 Jan 3.1 20:35:11 10° S 20:40:20 84° WSW 20:45:26 10° NNW visible
26 Jan 5.8 21:38:44 10° SSW 21:42:14 19° WSW 21:45:42 10° WNW visible
27 Jan 4.3 21:00:55 10° S 21:05:47 44° WSW 21:10:35 10° NW visible
28 Jan 3.0 20:23:59 10° SSE 20:29:09 75° ENE 20:34:14 10° N visible
29 Jan 5.4 21:27:05 10° SSW 21:31:07 24° WSW 21:35:09 10° WNW visible
30 Jan 3.7 20:49:35 10° S 20:54:38 58° WSW 20:59:36 10° NNW visible
31 Jan 6.1 21:54:06 10° SW 21:56:23 13° WSW 21:58:39 10° W visible
